TimeCST,TemperatureF,Dew PointF,Humidity,Sea Level PressureIn,VisibilityMPH,Wind Direction,Wind SpeedMPH,Gust SpeedMPH,PrecipitationIn,Events,Conditions,WindDirDegrees,DateUTC
12:15 AM,66.6,61.9,85,29.99,10.0,ESE,12.7,17.3,N/A,,Scattered Clouds,110,2013-02-20 06:15:00
12:35 AM,66.7,62.1,85,29.98,10.0,ESE,10.4,-,N/A,,Scattered Clouds,120,2013-02-20 06:35:00
12:55 AM,66.7,62.1,85,29.98,10.0,SE,8.1,-,N/A,,Mostly Cloudy,130,2013-02-20 06:55:00
1:15 AM,67.1,62.1,84,29.97,10.0,SE,8.1,-,N/A,,Overcast,130,2013-02-20 07:15:00
1:35 AM,66.6,61.9,85,29.96,10.0,ESE,6.9,-,N/A,,Overcast,120,2013-02-20 07:35:00
1:55 AM,66.6,62.1,85,29.96,10.0,ESE,10.4,-,N/A,,Overcast,110,2013-02-20 07:55:00
2:15 AM,66.9,62.2,85,29.96,10.0,ESE,5.8,-,N/A,,Overcast,110,2013-02-20 08:15:00
2:35 AM,67.3,62.6,85,29.96,10.0,ESE,5.8,-,N/A,,Overcast,110,2013-02-20 08:35:00
3:15 AM,67.3,62.6,85,29.95,10.0,East,5.8,-,N/A,,Mostly Cloudy,100,2013-02-20 09:15:00
3:35 AM,67.5,62.6,84,29.93,10.0,ESE,5.8,-,N/A,,Mostly Cloudy,110,2013-02-20 09:35:00
3:55 AM,68.0,62.8,83,29.93,10.0,ESE,5.8,-,N/A,,Overcast,110,2013-02-20 09:55:00
4:15 AM,68.0,63.0,84,29.93,10.0,East,5.8,-,N/A,,Overcast,100,2013-02-20 10:15:00
4:55 AM,68.0,63.0,84,29.93,10.0,East,3.5,-,N/A,,Overcast,100,2013-02-20 10:55:00
5:35 AM,68.0,63.5,85,29.93,10.0,ESE,3.5,-,N/A,,Overcast,110,2013-02-20 11:35:00
5:55 AM,67.8,63.3,85,29.93,10.0,East,3.5,-,N/A,,Overcast,90,2013-02-20 11:55:00
6:15 AM,67.1,63.0,87,29.93,10.0,East,4.6,-,N/A,,Overcast,90,2013-02-20 12:15:00
6:35 AM,66.7,63.0,88,29.93,7.0,East,4.6,-,N/A,,Overcast,100,2013-02-20 12:35:00
6:55 AM,66.7,63.1,88,29.93,7.0,ESE,3.5,-,N/A,,Mostly Cloudy,120,2013-02-20 12:55:00
7:15 AM,67.8,64.2,88,29.94,7.0,SE,6.9,-,N/A,,Mostly Cloudy,130,2013-02-20 13:15:00
7:35 AM,69.4,64.8,85,29.94,7.0,SE,8.1,-,N/A,,Overcast,140,2013-02-20 13:35:00
7:55 AM,69.8,64.9,84,29.92,7.0,SSE,12.7,18.4,N/A,,Mostly Cloudy,150,2013-02-20 13:55:00
8:15 AM,70.7,65.7,84,29.92,7.0,SSE,13.8,20.7,N/A,,Overcast,150,2013-02-20 14:15:00
8:35 AM,71.1,65.8,84,29.92,7.0,SSE,12.7,21.9,N/A,,Overcast,160,2013-02-20 14:35:00
9:15 AM,72.5,65.5,79,29.93,10.0,SSE,13.8,20.7,N/A,,Overcast,160,2013-02-20 15:15:00
9:35 AM,73.6,65.5,76,29.93,7.0,SSE,17.3,25.3,N/A,,Overcast,160,2013-02-20 15:35:00
9:55 AM,73.9,65.3,74,29.91,7.0,SSE,16.1,24.2,N/A,,Overcast,160,2013-02-20 15:55:00
10:15 AM,75.9,64.4,67,29.90,7.0,SSE,19.6,32.2,N/A,,Mostly Cloudy,160,2013-02-20 16:15:00
10:35 AM,77.0,64.2,65,29.89,7.0,SSE,19.6,32.2,N/A,,Overcast,150,2013-02-20 16:35:00
10:55 AM,78.1,64.0,62,29.88,7.0,SSE,26.5,31.1,N/A,,Overcast,160,2013-02-20 16:55:00
11:15 AM,78.3,63.7,61,29.87,7.0,SSE,21.9,35.7,N/A,,Overcast,150,2013-02-20 17:15:00
11:35 AM,78.8,63.1,59,29.86,7.0,SSE,27.6,33.4,N/A,,Overcast,160,2013-02-20 17:35:00
11:55 AM,79.9,63.1,56,29.85,5.0,SSE,25.3,36.8,N/A,,Haze,160,2013-02-20 17:55:00
12:15 PM,79.0,62.1,56,29.84,7.0,SSE,25.3,35.7,N/A,,Overcast,160,2013-02-20 18:15:00
12:35 PM,78.6,62.6,58,29.83,7.0,SSE,24.2,35.7,N/A,,Overcast,160,2013-02-20 18:35:00
12:55 PM,79.2,62.2,56,29.82,5.0,South,25.3,31.1,N/A,,Haze,170,2013-02-20 18:55:00
1:15 PM,81.0,61.5,51,29.82,7.0,South,26.5,38.0,N/A,,Mostly Cloudy,170,2013-02-20 19:15:00
1:35 PM,80.6,61.5,52,29.80,7.0,South,20.7,31.1,N/A,,Mostly Cloudy,170,2013-02-20 19:35:00
1:55 PM,79.9,61.3,53,29.77,7.0,South,26.5,38.0,N/A,,Mostly Cloudy,170,2013-02-20 19:55:00
2:15 PM,79.3,61.7,55,29.75,7.0,SSE,26.5,40.3,N/A,,Scattered Clouds,160,2013-02-20 20:15:00
2:55 PM,79.7,61.2,53,29.73,7.0,SSE,26.5,39.1,N/A,,Clear,160,2013-02-20 20:55:00
3:15 PM,78.8,60.8,54,29.73,7.0,SSE,21.9,34.5,N/A,,Clear,160,2013-02-20 21:15:00
3:35 PM,78.8,60.8,54,29.72,7.0,SSE,20.7,34.5,N/A,,Clear,160,2013-02-20 21:35:00
3:55 PM,78.3,61.0,55,29.72,7.0,SSE,19.6,27.6,N/A,,Clear,160,2013-02-20 21:55:00
4:15 PM,77.4,61.2,57,29.72,7.0,SSE,20.7,34.5,N/A,,Clear,160,2013-02-20 22:15:00
4:35 PM,77.0,61.7,59,29.72,7.0,SSE,19.6,29.9,N/A,,Clear,160,2013-02-20 22:35:00
4:55 PM,77.0,61.7,59,29.71,7.0,SSE,17.3,27.6,N/A,,Clear,150,2013-02-20 22:55:00
5:15 PM,76.5,61.5,60,29.70,10.0,SSE,23.0,32.2,N/A,,Clear,160,2013-02-20 23:15:00
5:35 PM,76.1,62.4,62,29.70,7.0,SSE,20.7,32.2,N/A,,Clear,160,2013-02-20 23:35:00
5:55 PM,75.9,62.6,63,29.70,10.0,SSE,23.0,32.2,N/A,,Clear,160,2013-02-20 23:55:00
6:15 PM,75.4,63.7,67,29.70,10.0,SSE,26.5,33.4,N/A,,Clear,160,2013-02-21 00:15:00
6:35 PM,74.8,64.4,70,29.70,10.0,SSE,19.6,28.8,N/A,,Scattered Clouds,160,2013-02-21 00:35:00
6:55 PM,74.3,64.9,72,29.70,10.0,SSE,15.0,27.6,N/A,,Scattered Clouds,150,2013-02-21 00:55:00
7:15 PM,73.9,65.3,74,29.70,10.0,SSE,18.4,25.3,N/A,,Mostly Cloudy,150,2013-02-21 01:15:00
7:35 PM,73.9,65.7,75,29.70,10.0,SSE,23.0,32.2,N/A,,Overcast,150,2013-02-21 01:35:00
7:55 PM,73.8,65.8,76,29.69,10.0,SSE,23.0,31.1,N/A,,Overcast,150,2013-02-21 01:55:00
8:15 PM,73.6,66.0,77,29.68,10.0,SSE,25.3,33.4,N/A,,Overcast,160,2013-02-21 02:15:00
8:35 PM,73.6,66.2,78,29.68,10.0,SSE,25.3,34.5,N/A,,Overcast,160,2013-02-21 02:35:00
8:55 PM,73.6,65.8,77,29.69,10.0,SSE,23.0,31.1,N/A,,Overcast,160,2013-02-21 02:55:00
9:15 PM,73.4,65.7,77,29.69,10.0,SSE,23.0,32.2,N/A,,Overcast,160,2013-02-21 03:15:00
9:35 PM,73.4,65.5,76,29.69,10.0,SSE,23.0,34.5,N/A,,Overcast,160,2013-02-21 03:35:00
9:55 PM,73.4,65.5,76,29.69,10.0,South,23.0,31.1,N/A,,Overcast,170,2013-02-21 03:55:00
10:35 PM,73.4,65.7,77,29.69,10.0,SSE,21.9,31.1,N/A,,Overcast,160,2013-02-21 04:35:00
10:55 PM,73.4,65.7,77,29.68,10.0,SSE,24.2,34.5,N/A,,Overcast,160,2013-02-21 04:55:00
11:15 PM,73.0,65.7,78,29.67,10.0,SSE,21.9,31.1,N/A,,Overcast,160,2013-02-21 05:15:00
11:35 PM,73.4,65.8,77,29.66,10.0,SSE,27.6,33.4,N/A,,Overcast,160,2013-02-21 05:35:00
11:55 PM,73.2,65.7,77,29.65,10.0,SSE,24.2,33.4,N/A,,Overcast,160,2013-02-21 05:55:00